Weather Roundup
Issued by NWS

Home | Current Version | Previous Version | Graphics & Text | Print | Product List | Glossary Off
Versions: 1 2 3 4 5 6 7 8 9 10 11 12 13 14 15 16 17 18 19 20 21 22 23 24 25 26 27 28 29 30 31 32 33 34 35 36 37 38 39 40 41 42 43 44 45 46 47 48 49 50

000
NZUS93 KARX 270959
HRRWXR

CURRENT HOURLY OBSERVATIONS ACROSS
MUCH OF THE UPPER MISSISSIPPI VALLEY
NATIONAL WEATHER SERVICE LA CROSSE WI
400 AM CST MON FEB 27 2017


...SOUTHEAST MINNESOTA...


CITY           SKY/WX    TMP DP  RH WIND       PRES   REMARKS
ROCHESTER      CLEAR     14  13  95 S8        29.96F WCI   3
ROCHESTER/MAYO FAIR      18  17  98 SE7       29.97F WCI   8
WINONA         CLEAR     19  18  93 CALM      30.02S
AUSTIN         CLOUDY    16  12  86 S5        29.98R WCI   9
ALBERT LEA     CLEAR     18  18 100 S5        29.97S WCI  11
DODGE CENTER   NOT AVBL
PRESTON        CLEAR     19  17  92 S12       29.99S WCI   6
OWATONNA       CLEAR     23  16  74 S14       29.94F WCI  11
FARIBAULT      CLEAR     19  16  86 S7        29.95F WCI  10
$$

...ELSEWHERE IN MINNESOTA...


CITY           SKY/WX    TMP DP  RH WIND       PRES   REMARKS
MINNEAPOLIS    CLOUDY    25  20  81 S5        29.94F WCI  19
INTNL FALLS    CLEAR      2  -2  83 CALM      29.90R
DULUTH         CLOUDY    16   6  65 CALM      29.92S
RED WING       PTCLDY    21  18  86 CALM      29.97F
REDWOOD FALLS  CLEAR     28  21  75 SW10      29.89F WCI  19
MANKATO          N/A     20  16  84 S7        29.94F WCI  11
WORTHINGTON    CLEAR     26  21  81 SW13      29.91F WCI  15
FAIRMONT       CLEAR     18  14  84 S12       29.95S WCI   5
$$

...SOUTHWEST WISCONSIN...


CITY           SKY/WX    TMP DP  RH WIND       PRES   REMARKS
LA CROSSE      CLEAR     26  23  88 SE7       30.03S WCI  18
PRAIRIE DU CHI CLEAR     23  22  93 SE5       30.06S WCI  17
BOSCOBEL       CLEAR     20  17  88 CALM      30.07S FOG
LONE ROCK      NOT AVBL
PLATTEVILLE    CLEAR     28  26  95 CALM      30.06R
FORT MC COY    CLEAR     16  15  95 E3        30.05R
MAUSTON-NEW LI SUNNY     24  22  89 CALM      30.03S
VIROQUA        FAIR      22  21  96 S6        30.02S WCI  15
WIS DELLS      CLEAR     23  21  91 S6        30.05S WCI  16
$$

...ELSEWHERE IN WISCONSIN...


CITY           SKY/WX    TMP DP  RH WIND       PRES   REMARKS
MILWAUKEE      CLEAR     26  19  74 CALM      30.09R
MADISON        CLEAR     23  20  88 CALM      30.06F
GREEN BAY      CLEAR     23  15  71 NE6       30.07S WCI  16
EAU CLAIRE     NOT AVBL
BLACK RVR FLS  FAIR      13  11  92 CALM      30.02R FOG
MEDFORD        CLOUDY    20  14  77 CALM      29.98R
WAUSAU         CLOUDY    22  17  81 E3        30.00R
WIS RAPIDS     CLOUDY    22  21  96 S3        30.03S
MARSHFIELD     CLOUDY    23  20  88 SE3       29.99S
RICE LAKE      CLOUDY    25  17  72 E3        29.98S
$$

...NORTHEAST IOWA...


CITY           SKY/WX    TMP DP  RH WIND       PRES   REMARKS
WATERLOO       CLEAR     21  18  88 SE3       30.02F FOG
DUBUQUE        CLEAR     23  20  88 CALM      30.05S
DECORAH        CLEAR     23  21  93 CALM      30.00F
MASON CITY     CLEAR     13  10  88 S6        30.00S WCI   4
CHARLES CITY   CLEAR     21  21 100 S8        30.01S WCI  12
OELWEIN        CLEAR     25  25 100 SE5       30.02F WCI  19
$$

...ELSEWHERE IN IOWA...


CITY           SKY/WX    TMP DP  RH WIND       PRES   REMARKS
DES MOINES     CLEAR     28  21  75 CALM      30.01S
IOWA CITY      PTCLDY    27  24  89 CALM      30.06F
FORT DODGE     CLEAR     18  12  79 CALM      29.99S
MARSHALLTOWN   CLEAR     20  20 100 SE6       30.01F WCI  12
CEDAR RAPIDS   PTCLDY    24  23  96 E7        30.03F WCI  16
$$

...NORTHERN ILLINOIS...


CITY           SKY/WX    TMP DP  RH WIND       PRES   REMARKS
CHICAGO-OHARE  PTCLDY    27  22  81 S3        30.10R
CHICAGO-MIDWAY MOCLDY    34  24  67 S6        30.11S WCI  29
MOLINE         PTCLDY    30  25  81 S3        30.06F
ROCKFORD       PTCLDY    27  23  85 CALM      30.10S
PEORIA         CLEAR     29  25  85 S5        30.11S WCI  24
$$

NOTE: "FAIR" INDICATES FEW OR NO CLOUDS BELOW 12,000 FEET WITH NO
SIGNIFICANT WEATHER AND/OR OBSTRUCTIONS TO VISIBILITY. WIND
SPEEDS ARE IN MILES-PER-HOUR.




USA.gov is the U.S. government's official web portal to all federal, state and local government web resources and services.